Location: Austin
(30.3000°N, 97.7500°W)
Time: 01:13:15
(UTC-05:00)

Cosmos 1763 Rocket - Pass Details

Date: 20 April 2024
Orbit: 730 x 778 km, 74.0° (Epoch: 29 May)

Event Time Altitude Azimuth Distance (km) Brightness Sun altitude
Exits shadow 21:11:29 21° 136° (SE) 1,605 4.6 -15.0°
Maximum altitude 21:13:30 28° 99° (E) 1,369 4.2 -15.3°
Drops below altitude 10° 21:17:46 10° 42° (NE) 2,248 5.8 -16.2°
Sets 21:20:24 0° 31° (NNE) 3,182 6.7 -16.7°
